Regional Weather Roundup
Issued by NWS

Home | Current Version | Previous Version | Text Only | Print | Product List | Glossary On
Versions: 1 2 3 4 5 6 7 8 9 10 11 12 13 14 15 16 17 18 19 20 21 22 23 24 25 26 27 28 29 30 31 32 33 34 35 36 37 38 39 40 41 42 43 44 45 46 47 48 49 50
423
ASUS44 KFWD 050715
RWRTX
NORTH TEXAS HOURLY WEATHER ROUNDUP
NATIONAL WEATHER SERVICE FORT WORTH TX
200 AM CDT THU MAY 05 2016

NOTE: "FAIR" INDICATES FEW OR NO CLOUDS BELOW 12,000 FEET WITH NO
SIGNIFICANT WEATHER AND/OR OBSTRUCTIONS TO VISIBILITY.

TXZ118-119-050800-
DALLAS/FORT WORTH METROPLEX

CITY           SKY/WX    TMP DP  RH WIND       PRES   REMARKS
DFW AIRPORT    CLEAR     66  51  58 N7        30.00S
DALLAS LOVE    CLEAR     65  55  70 CALM      30.01S
FTW MEACHAM    CLEAR     63  51  65 N6        30.01S
DAL-EXECUTIVE  CLEAR     61  52  72 NW6       30.00S
FTW-ALLIANCE   CLEAR     56  52  86 CALM      30.02S
FTW-NAS-JRB    CLEAR     66  55  67 NW5       30.02S
FTW-SPINKS     CLEAR     58  53  81 CALM      30.03F
ARLINGTON      CLEAR     64  53  67 NW5       30.01S
GRAND PRAIRIE  CLEAR     68  50  53 N5        30.03S
ADDISON        PTCLDY    68  52  57 CALM      30.02S
MESQUITE       CLEAR     62  52  68 N5        30.01R
LANCASTER      CLEAR     60  52  74 NW3       30.01S
$$

TXZ091>094-102>105-117-120-121-131>134-050800-
NORTH CENTRAL TEXAS

CITY           SKY/WX    TMP DP  RH WIND       PRES   REMARKS
SHRMAN/DENISON CLEAR     54  46  75 CALM      30.03R
GAINESVILLE    CLEAR     56  48  73 CALM      30.05S
BOWIE          CLEAR     55  50  84 CALM      30.04S
BRIDGEPORT     CLEAR     54  54 100 CALM      30.05S
DECATUR        CLEAR     65  46  50 NE3       30.04S
DENTON         CLEAR     58  52  80 NW3       30.02R
MCKINNEY       CLEAR     60  52  74 NW5       30.01S
GREENVILLE     CLEAR     59  52  77 CALM      30.01R
ROCKWALL       CLEAR     62  55  78 NW6       29.99S
TERRELL        CLEAR     62  53  72 N6        30.00S
WAXAHACHIE     CLEAR     61  54  75 N5        30.02S
CLEBURNE       CLEAR     61  55  82 CALM      30.03S
GRANBURY       CLEAR     58  53  84 CALM      30.04R
$$

TXZ083>090-098>101-113>116-127>130-139>142-154-155-050800-
WESTERN NORTH TEXAS

CITY           SKY/WX    TMP DP  RH WIND       PRES   REMARKS
WICHITA FALLS  CLEAR     61  51  70 NE5       30.04S
WF-KICKAPOO    CLEAR     63  51  64 CALM      30.06R
ABILENE        CLEAR     55  49  80 S7        30.08S
ABILENE-DYESS  CLEAR     53  48  82 SW6       30.07S
BRECKENRIDGE   CLEAR     58  51  76 SW5       30.05S
GRAHAM         CLEAR     53  52  99 CALM      30.03S
MINERAL WELLS  CLEAR     56  54  93 CALM      30.02R
STEPHENVILLE   CLEAR     57  51  80 CALM      30.07S
COMANCHE       CLEAR     64  47  55 SW7       30.06S
BROWNWOOD      CLEAR     50  50 100 CALM      30.08R
COLEMAN        CLEAR     54  49  85 W6        30.08S
$$

TXZ143>147-156>162-174-175-050800-
CENTRAL TEXAS

CITY           SKY/WX    TMP DP  RH WIND       PRES   REMARKS
WACO           CLEAR     58  54  86 W7        30.01S
WACO-MCGREGOR  CLEAR     57  53  86 SW5       30.02S
HILLSBORO      PTCLDY    55  52  88 CALM      30.01S
CORSICANA      CLEAR     64  53  67 NW8       30.00S
HEARNE         CLEAR     57  55  92 CALM      30.02S
CAMERON        CLEAR     65  51  62 W5        30.01
TEMPLE         CLEAR     60  54  80 W3        30.03S
KILLEEN        CLEAR     60  49  68 NW3       30.04S
KILLEEN-SKYLRK CLEAR     61  51  70 W7        30.04S
FORT HOOD      CLEAR     61  51  70 W3        30.02S
GATESVILLE     CLEAR     61  52  72 MISG      30.06S
HAMILTON       CLEAR     59  50  72 W7        30.05F
LAMPASAS       CLEAR     58  51  77 CALM      30.05F
$$

TXZ095>097-106>112-122>126-135>138-148>153-164>167-050800-
EAST TEXAS

CITY           SKY/WX    TMP DP  RH WIND       PRES   REMARKS
PARIS          CLEAR     57  43  58 N7        30.00S
SULPHUR SPRNGS CLEAR     63  54  72 NW3       30.02S
MOUNT PLEASANT CLEAR     61  52  72 NW3       30.00S
GILMER         CLEAR     57  54  89 CALM      29.98S
MINEOLA        CLEAR     61  55  82 CALM      30.00S
TYLER          CLEAR     62  53  72 N5        29.98S
LONGVIEW       CLEAR     60  54  80 NW3       29.96S
MARSHALL       CLEAR     57  52  82 CALM      29.98S
PALESTINE      CLEAR     56  55  96 CALM      29.99S
JACKSONVILLE   CLEAR     67  52  56 NW5       30.00R
HENDERSON      CLEAR     56  54  90 CALM      29.98S
NACOGDOCHES    CLEAR     55  52  88 CALM      29.96R
LUFKIN         CLEAR     58  55  90 CALM      29.95F
$$

SUPPLEMENTAL OBSERVATIONS (CENTRAL)

CITY           SKY/WX    TMP DP  RH WIND       PRES   REMARKS
LAKE TEXOMA      N/A     64  46  52 NE2         N/A
PAT MAYSE LAKE   N/A     57  46  67 CALM        N/A
GREENVILLE       N/A     61  52  72 VRB5        N/A
CEDAR HILL       N/A     57  54  88 CALM        N/A
ATHENS           N/A     61  55  82 CALM        N/A
LAKE LIMESTONE   N/A     57  52  82 W3          N/A
MCGREGOR         N/A     57  54  88 SW2         N/A
TEMPLE           N/A     63  52  67 W7          N/A
$$

SUPPLEMENTAL OBSERVATIONS (WEST)

CITY           SKY/WX    TMP DP  RH WIND       PRES   REMARKS
MILLERS CREEK    N/A     57  52  82 SW5         N/A
POSSUM KINGDOM   N/A     61  50  67 W3          N/A
GRANBURY         N/A     57  52  82 NW1         N/A
COMANCHE         N/A     64  45  48 SW7         N/A
HAMBY            N/A     55  48  76 SE3         N/A
$$

SUPPLEMENTAL OBSERVATIONS (EAST)

CITY           SKY/WX    TMP DP  RH WIND       PRES   REMARKS
CLARKSVILLE      N/A     59  43  55 N3          N/A
CADDO LAKE       N/A     52  48  87 CALM        N/A
GILMER           N/A     57  54  88 CALM        N/A
HENDERSON        N/A     57  54  88 N1          N/A
LUFKIN           N/A     57  55  94 MISG        N/A
N SABINE NF      N/A     61  55  82 MISG        N/A
S SABINE NF      N/A     61  54  77 NW1         N/A
$$

SUPPLEMENTAL OBSERVATIONS ARE A COLLECTION OF AUTOMATED INSTRUMENTS
THAT ARE MAINTAINED BY A VARIETY OF FEDERAL AND STATE AGENCIES.
CERTAIN ELEMENTS...SUCH AS HUMIDITY VALUES AND SUSTAINED WIND
SPEEDS...MAY BE APPROXIMATED.





USA.gov is the U.S. government's official web portal to all federal, state and local government web resources and services.